Regional Weather Roundup
Issued by NWS

Home | Current Version | Previous Version | Text Only | Print | Product List | Glossary On
Versions: 1 2 3 4 5 6 7 8 9 10 11 12 13 14 15 16 17 18 19 20 21 22 23 24 25 26 27 28 29 30 31 32 33 34 35 36 37 38 39 40 41 42 43 44 45 46 47 48 49 50
000
ASUS42 KFFC 231510
RWRGA
WEATHER ROUNDUP FOR GEORGIA
NATIONAL WEATHER SERVICE PEACHTREE CITY GA
1100 AM EDT SUN APR 23 2017

NOTE: "FAIR" INDICATES FEW OR NO CLOUDS BELOW 12,000 FEET WITH NO
SIGNIFICANT WEATHER AND/OR OBSTRUCTIONS TO VISIBILITY.

* = USE WITH CAUTION. THE STATIONS MARKED WITH AN ASTERISK MAY NOT
REPORT WEATHER SUCH AS PRECIPITATION, FOG, OR THUNDER AND ARE NOT
QUALITY CONTROLLED BY NWS.

THE REMARK "TC" DENOTES TEMPERATURE READING IN DEGREES CELSIUS.

GAZ001>058-231600-
NORTH GEORGIA

CITY           SKY/WX    TMP DP  RH WIND       PRES   REMARKS
ATLANTA        LGT RAIN  64  60  87 SE10      29.85S
ATHENS         LGT RAIN  61  61 100 E10       29.86S
CHAMBLEE       LGT RAIN  62  57  83 E6        29.84F
PEACHTREE CITY LGT RAIN  65  64  97 SE9       29.84F
ROME           CLOUDY    64  61  90 SE9       29.78F
WEST ATLANTA   LGT RAIN  64  62  93 E7        29.82F
GAINESVILLE    CLOUDY    59  59 100 E13G20    29.87F
CARTERSVILLE   CLOUDY    63  60  90 SE8       29.80F


CITY           SKY/WX    TMP DP  RH WIND       PRES   REMARKS
DALTON*        RAIN      63  63 100 SE10      29.79S
LAWRENCEVILLE* CLOUDY    61  57  88 E12       29.86R
MARIETTA       LGT RAIN  63  59  88 SE12      29.83S
KENNESAW*      LGT RAIN  63  59  88 E12G22    29.81F
CANTON*        LGT RAIN  61  59  94 E7        29.84F
$$

GAZ059>098-102>109-231600-
CENTRAL GEORGIA

CITY           SKY/WX    TMP DP  RH WIND       PRES   REMARKS
AUGUSTA-BUSH   MOSUNNY   77  64  64 SE5       29.85S
AUGUSTA-DANIEL MOSUNNY   76  61  59 E7        29.87R
COLUMBUS       CLOUDY    72  63  73 W6        29.82F
MACON          CLOUDY    76  63  64 SE5       29.83S
ROBINS AFB     CLOUDY    75  64  70 S8        29.82F


CITY           SKY/WX    TMP DP  RH WIND       PRES   REMARKS
LAGRANGE*      CLOUDY    70  70 100 S7        29.82F
SYLVANIA*      PTSUNNY   82  64  54 CALM      29.86F
MILLEDGEVILLE* CLOUDY    75  63  64 E3        29.84S
$$

GAZ099>101-110>166-231600-
SOUTH GEORGIA

CITY           SKY/WX    TMP DP  RH WIND       PRES   REMARKS
SAVANNAH       PTSUNNY   81  62  52 SW5       29.87S
VALDOSTA       SUNNY     77  63  61 SW7       29.87S
ALMA           SUNNY     78  63  59 S6        29.87S
ST SIMONS      SUNNY     80  61  52 SW10      29.87S
FT STEWART     MOSUNNY   80  61  52 S6        29.85S
ALBANY         PTSUNNY   76  65  68 SW8       29.86S
MOODY AFB      MOSUNNY   78  62  56 SW6       29.85F
BRUNSWICK      SUNNY     81  63  54 S8        29.88S


CITY           SKY/WX    TMP DP  RH WIND       PRES   REMARKS
BAINBRIDGE*    CLOUDY    77  63  61 SW13      29.85S
MOULTRIE*      SUNNY     77  61  57 SW7       29.87S
VIDALIA*       PTSUNNY   79  63  57 SW7       29.86F
WAYCROSS*      SUNNY     81  66  60 SW3       29.87S
DOUGLAS*       PTSUNNY   77  59  53 W6        29.88F
$$



USA.gov is the U.S. government's official web portal to all federal, state and local government web resources and services.